Weather in Yashtuga

Russia / Mari El Republic     56°04′19″N   46°13′34″E
temp.,
°C
wind,
m/s
gust,
m/s
humid.,
%
clouds,
%
prec.,
mm/h
press.,
hPa
HPBL,
m
5 december, sun
sun500:00−3w5108179 0.1 1009867
03:00−3w598496 0.2 1011885
06:00−4w498693 0.1 1012770
09:00−5w388767 0.1 1014704
12:00−4wnw4675100 0.0 1016888
15:00−4wnw2477100 0.0 1017487
18:00−5n1191100 0.1 1018194
21:00−5ne229082 0.3 1019219
6 december, mon
mon600:00−6ne239183 0.1 1021173
03:00−6ne339095 0.1 1022201
06:00−7ene349092 0.1 1023203
09:00−7ene348994 0.3 1025222
12:00−6e238798 0.2 1025277
15:00−6ene3490100 0.3 1027226
18:00−6e3492100 0.1 1028204
21:00−6e3592100 0.2 1028207
7 december, tue
tue700:00−6e359499 0.1 1029175
03:00−6ese2697100 0.1 1029145
06:00−5ese4894100 0.0 1029218
09:00−5se51193100 0.0 1028333
12:00−3se61385100 0.0 1028542
15:00−2se71481100 0.0 1026622
18:00−3se81683100 0.1 1024757
21:00−3sse71795100 2.2 1022726
8 december, wed
wed800:00−2sse71696100 4.8 1020715
03:000s71695100 7.1 1018649
06:00+1s71794100 1.5 1018614
09:00+2s71695100 1.6 1018651
12:00+2s71696100 0.0 1018615
15:00+2ssw51496100 0.0 1019573
18:00+2s41295100 0.0 1020392
21:00+2s41293100 0.0 1021335
9 december, thu
thu900:00+1s41192100 0.0 1021308
03:00+1sse41191100 0.0 1021276
06:00+1sse41092100 0.0 1021258
09:000se41093100 0.0 1021257
12:00+1se41090100 0.0 1021370
15:000se41091100 0.0 1020300
18:00−1sse41091100 0.0 1020346
21:00−1sse41093100 0.0 1020340